#timestamp,LO_Frequency,Hit,StdDev 
1514358015.6,286047005.6,N
1514358035.4,286047003.6,N
1514358055.2,286047003.7,N
1514358075.1,286047003.7,N
1514358076.0,286047003.7,N
1514358095.8,286047007.4,Y
1514358115.6,286047010.5,P
1514358135.5,286047008.3,N
1514358155.3,286047011.7,P
1514358175.1,286047012.8,Y
1514358195.9,286047004.8,P
1514358215.7,286047001.6,N
1514358235.5,286047001.3,N
1514358255.4,286047003.5,N
1514358275.2,286047003.3,N
1514358295.0,286047003.8,N
1514358295.9,286047003.8,N
1514358315.8,286047004.4,N
1514358335.6,286047000.0,N
1514358355.4,286047005.3,N
1514358375.3,286047010.2,Y
1514358395.1,286047009.9,P
1514358396.0,286047009.9,P
1514358415.8,286047010.9,P
1514358435.7,286047016.1,Y
1514358455.5,286047013.9,P
1514358475.3,286047014.1,P
1514358495.2,286047017.9,P
1514358515.9,286047023.2,Y
1514358535.7,286047006.0,P
1514358555.6,286047003.6,N
1514358575.4,286047009.0,N
1514358595.2,286047007.0,N
1514358615.1,286047005.8,N
1514358616.0,286047005.8,N
1514358635.8,286047006.7,N
1514358655.6,286047007.2,N
1514358675.5,286047006.0,N
1514358695.3,286047005.9,N
1514358715.1,286047006.8,N
1514358735.9,286047009.4,Y
1514358755.7,286047004.4,P
1514358775.5,286047007.2,P
1514358795.3,286047007.0,P
1514358815.2,286047006.3,Y
1514358835.0,286047000.2,P
1514358835.9,286047000.2,N
1514358855.8,286046998.0,N
1514358875.6,286046994.9,N
1514358895.4,286046995.6,N
1514358915.2,286046993.5,N
1514358935.1,286046999.2,N
1514358936.0,286046999.2,N
1514358955.8,286046995.1,N
1514358975.6,286046997.3,N
1514358995.5,286046998.3,N
1514359015.3,286047000.1,N
1514359035.1,286046999.8,N
1514359055.9,286047001.6,N
1514359075.7,286047001.2,N
1514359095.5,286046999.5,N
1514359115.4,286046998.9,N
1514359135.2,286047002.1,N
1514359155.0,286047005.4,N
1514359155.9,286047005.4,N
1514359175.8,286047005.2,N
1514359195.6,286047004.9,N
1514359215.4,286047005.8,N
1514359235.2,286047003.9,N
1514359255.1,286047003.7,N
1514359256.0,286047003.7,N
1514359275.8,286047003.4,N
1514359295.6,286047001.7,N
1514359315.5,286047003.6,N
1514359335.3,286047005.9,N
1514359355.1,286047005.9,N
1514359375.9,286047001.5,N
1514359395.7,286047001.0,N
1514359415.5,286047000.4,N
1514359435.4,286046999.6,N
1514359455.2,286046998.4,N
1514359475.0,286046999.5,N
1514359475.9,286046999.5,N
1514359495.8,286046997.6,N
1514359515.6,286046995.4,N
1514359535.4,286046995.3,N
1514359555.3,286046994.1,N
1514359575.1,286046995.1,N
1514359576.0,286046995.1,N
1514359595.8,286046996.0,N
1514359615.6,286046995.2,N
1514359635.5,286046996.3,N
1514359655.3,286046991.7,N
1514359675.1,286046994.5,N
1514359695.9,286046992.3,N
1514359715.7,286046992.1,N
1514359735.5,286046991.9,N
1514359755.4,286046992.3,N
1514359775.2,286046990.2,N
1514359795.0,286046991.5,N
1514359795.9,286046991.5,N
1514359815.8,286046989.7,N
1514359835.6,286046989.4,N
1514359855.4,286046989.4,N
1514359875.3,286046988.9,N
1514359895.1,286046991.1,N
1514359896.0,286046991.1,N
1514359915.8,286046989.1,Y
1514359935.7,286046995.6,P
1514359955.5,286046995.4,P
1514359975.3,286046995.6,P
1514359995.2,286046997.6,Y
1514360015.9,286047002.4,P
1514360035.7,286047002.2,N
1514360055.6,286047000.7,N
1514360075.4,286047001.0,N
1514360095.2,286047000.5,N
1514360115.0,286047000.8,N
1514360116.0,286047000.8,N
1514360135.8,286047002.4,N
1514360155.6,286047001.9,N
1514360175.4,286047000.1,N
1514360195.3,286046996.9,N
1514360215.1,286046996.6,N
1514360235.8,286046995.7,N
1514360255.7,286046996.3,N
1514360275.5,286046993.3,N
1514360295.3,286046997.4,N
1514360315.2,286046997.1,N
1514360335.9,286046999.6,N
1514360355.7,286046998.5,N
1514360375.6,286046998.6,N
1514360395.4,286046998.3,N
1514360415.2,286047001.1,N
1514360435.0,286046999.8,N
1514360435.9,286046999.8,N
1514360455.8,286047003.1,N
1514360475.6,286047006.0,N
1514360495.4,286047001.6,N
1514360515.3,286047000.4,N
1514360535.1,286047001.6,N
1514360555.8,286047007.1,N
1514360575.7,286047003.5,N
1514360595.5,286047003.9,N
1514360615.3,286047004.4,N
1514360635.2,286047002.0,N
1514360655.9,286047001.6,N
1514360675.7,286047007.0,N
1514360695.6,286047007.6,N
1514360715.4,286047005.1,N
1514360735.2,286047003.9,N
1514360755.0,286047004.5,N
1514360755.9,286047004.5,N
1514360775.8,286047006.8,N
1514360795.6,286047005.4,N
1514360815.4,286047002.9,N
1514360835.3,286047008.8,N
1514360855.1,286047005.0,N
1514360875.8,286047005.1,N
1514360895.7,286047005.4,N
1514360915.5,286047003.4,N
1514360935.3,286047006.4,N
1514360955.2,286047010.4,Y
1514360975.9,286047001.5,P
1514360995.7,286047000.0,N
1514361015.6,286047001.2,N
1514361035.4,286046998.7,N
1514361055.2,286046995.1,N
1514361075.1,286046996.0,N
1514361076.0,286046996.0,N
1514361095.8,286046995.5,N
1514361115.6,286046993.9,N
1514361135.5,286046992.9,N
1514361155.3,286046993.2,N
1514361175.1,286046988.6,Y
1514361195.9,286046992.9,P
1514361215.7,286046992.5,P
1514361235.5,286046993.0,P
1514361255.4,286046992.9,Y
1514361275.2,286047000.9,P
1514361295.0,286046999.0,N
1514361295.9,286046999.0,N
1514361315.8,286046994.2,N
1514361335.6,286046995.4,N
1514361355.4,286047000.7,N
1514361375.2,286046998.3,N
1514361395.1,286047001.0,N
1514361396.0,286047001.0,N
1514361415.8,286046999.4,N
1514361435.6,286047003.6,N
1514361455.5,286047003.5,N
1514361475.3,286047004.1,N
1514361495.1,286047003.9,N
1514361515.9,286047000.0,N
1514361535.7,286046999.9,N
1514361555.5,286047001.6,N
1514361575.4,286047000.5,N
1514361595.2,286047002.4,N
